{"data":{"norad_id":66449,"epoch":"2026-05-24T15:22:09.206976Z","epoch_age_seconds":103246,"freshness":"FRESH","line1":"1 66449U 25259AD  26144.64038434  .00013517  00000+0  49983-3 0  9993","line2":"2 66449  42.9984 205.6998 0002083 268.0528  92.0086 15.27577968 30993","mean_motion":15.27577968,"eccentricity":0.0002083,"inclination_deg":42.9984,"raan_deg":205.6998,"arg_perigee_deg":268.0528,"mean_anomaly_deg":92.0086,"bstar":0.00049983,"rev_number":3099,"period_min":94.266874108255,"perigee_km":481.62599425419,"apogee_km":484.48436691662,"semimajor_km":6861.1921805854,"source":"CELESTRAK","updated_at":"2026-05-25T13:38:21.212998Z"}}